Tracking 22836 objects as of 18-Apr-2021
HD Live streaming from Space Station
objects crossing your sky now

SAKURA 2B (CS-2B)

Track SAKURA 2B (CS-2B) now!
SAKURA 2B (CS-2B) is classified as:


NORAD ID: 14248
Int'l Code: 1983-081A
Perigee: 36,173.4 km
Apogee: 36,243.2 km
Inclination: 13.9 °
Period: 1,457.3 minutes
Semi major axis: 42579 km
RCS: 8.9693 m2 (large)
Launch date: August 5, 1983
Source: Japan (JPN)
Launch site: TANEGASHIMA SPACE CENTER (TNSTA)
aabbcc
Your satellite tracking list
Your tracking list is empty




NASA's NSSDC Master Catalog

Two Line Element Set (TLE):
1 14248U 83081A   21108.10668009 -.00000074  00000-0  00000+0 0  9992
2 14248  13.8530 338.7084 0008193  42.0018 144.8378  0.98810956105119
Source of the keplerian elements: AFSPC